[[[{"header":{"parameterUnit":"kt","parameterCategory":2,"dx":1,"dy":1,"la1":30.253999710083008,"la2":30.299108505249023,"lo1":-89.0895004272461,"lo2":-89.04439544677734,"nx":28,"ny":28,"refTime":"2022-10-01T21:00:00:Z","depth":0,"parameterNumber":1,"parameterNumberName":"U-component_of_WINDS"},"data":[-0.0799,-0.0786,-0.0776,-0.0755,-0.0742,-0.0726,-0.0717,-0.0703,-0.069,-0.0668,-0.0653,-0.0641,-0.0622,-0.0601,-0.0584,-0.0578,-0.0572,-0.0573,-0.0567,-0.0569,-0.0568,-0.0568,-0.0571,-0.0572,-0.0572,-0.0566,-0.0566,-0.0566,-0.0799,-0.0787,-0.0773,-0.0754,-0.0742,-0.0734,-0.0717,-0.0707,-0.0692,-0.0675,-0.0661,-0.064,-0.0622,-0.0603,-0.0583,-0.0575,-0.057,-0.057,-0.0571,-0.0568,-0.057,-0.0573,-0.0575,-0.0575,-0.0575,-0.0575,-0.0575,-0.0575,-0.0796,-0.0789,-0.0771,-0.0757,-0.0744,-0.073,-0.0721,-0.0707,-0.0693,-0.0673,-0.0663,-0.0646,-0.0627,-0.0599,-0.0586,-0.0571,-0.0569,-0.0566,-0.0566,-0.0565,-0.0566,-0.0575,-0.0568,-0.0568,-0.0568,-0.0567,-0.0567,0,-0.0791,-0.0784,-0.0771,-0.0754,-0.0743,-0.0729,-0.0715,-0.0709,-0.0689,-0.0678,-0.0661,-0.0649,-0.0626,-0.0608,-0.0588,-0.0576,-0.0566,-0.0564,-0.0562,-0.0567,-0.0573,-0.0569,-0.0572,-0.0564,-0.0564,-0.0564,-0.0564,-0.0564,-0.0788,-0.078,-0.0758,-0.075,-0.074,-0.0727,-0.0717,-0.0701,-0.0691,-0.067,-0.0663,-0.0646,-0.0631,-0.0604,-0.0587,-0.0569,-0.0564,-0.0563,-0.0562,-0.0566,-0.0564,-0.0565,-0.0563,-0.0563,-0.0564,-0.0564,-0.0564,0,-0.0786,-0.0771,-0.0757,-0.0736,-0.073,-0.0722,-0.0704,-0.0695,-0.0682,-0.0668,-0.0664,-0.0644,-0.0627,-0.0611,-0.0588,-0.058,-0.0564,-0.056,-0.057,-0.0569,-0.0565,-0.0566,-0.0557,-0.0555,-0.0554,-0.0554,-0.0554,0,-0.0778,-0.0768,-0.0747,-0.0739,-0.0728,-0.0712,-0.0701,-0.0689,-0.0674,-0.0663,-0.065,-0.064,-0.062,-0.0607,-0.0594,-0.0579,-0.0575,-0.0567,-0.0564,-0.0569,-0.057,-0.0563,-0.0563,-0.0558,-0.0558,-0.0558,-0.0558,0,-0.0778,-0.0755,-0.0743,-0.0736,-0.0712,-0.0706,-0.0696,-0.068,-0.067,-0.0655,-0.0648,-0.0632,-0.0622,-0.0609,-0.0594,-0.0594,-0.0575,-0.0571,-0.0567,-0.0567,-0.0564,-0.0565,-0.0561,-0.0558,-0.0558,-0.0558,-0.0558,0,-0.0769,-0.0755,-0.074,-0.072,-0.0715,-0.0706,-0.069,-0.0679,-0.0662,-0.0654,-0.0642,-0.0632,-0.0618,-0.0616,-0.0596,-0.06,-0.0591,-0.0583,-0.0582,-0.0581,-0.0579,-0.0579,-0.0577,-0.0576,-0.0577,-0.0578,-0.0578,0,-0.0772,-0.0753,-0.074,-0.0726,-0.0715,-0.0702,-0.0692,-0.0678,-0.0667,-0.0655,-0.0642,-0.0629,-0.0624,-0.0618,-0.061,-0.0596,-0.0591,-0.0597,-0.0578,-0.0577,-0.0583,-0.0581,-0.0585,-0.0579,-0.058,-0.0579,-0.0579,0,-0.0774,-0.0747,-0.0746,-0.0737,-0.0717,-0.0708,-0.0697,-0.0681,-0.0674,-0.066,-0.0649,-0.063,-0.0626,-0.0616,-0.0606,-0.0599,-0.0594,-0.0595,-0.0594,-0.0595,-0.058,-0.0583,-0.0582,-0.0589,-0.0588,-0.0588,-0.0581,0,-0.0763,-0.0752,-0.0747,-0.0729,-0.072,-0.071,-0.0695,-0.0687,-0.0679,-0.0668,-0.0653,-0.0638,-0.0621,-0.0616,-0.0608,-0.0597,-0.0597,-0.0592,-0.059,-0.0589,-0.0586,-0.0585,-0.0595,-0.0595,-0.0595,-0.0595,0,0,-0.077,-0.0755,-0.0742,-0.0732,-0.0723,-0.0711,-0.0702,-0.0692,-0.0673,-0.0666,-0.0665,-0.0636,-0.0624,-0.0607,-0.0606,-0.0599,-0.0596,-0.0597,-0.0589,-0.0589,-0.0588,-0.0585,-0.0585,-0.0594,-0.0594,-0.0594,-0.0594,0,-0.0764,-0.0754,-0.0746,-0.0735,-0.0719,-0.0709,-0.0707,-0.0689,-0.0681,-0.0667,-0.0657,-0.0646,-0.0625,-0.0613,-0.0604,-0.0599,-0.0592,-0.0595,-0.0597,-0.0588,-0.0588,-0.0588,-0.0585,-0.0584,-0.0594,-0.0594,-0.0594,0,-0.0762,-0.075,-0.0745,-0.0726,-0.0715,-0.0705,-0.0698,-0.0688,-0.0679,-0.0666,-0.0653,-0.0643,-0.0626,-0.0613,-0.0606,-0.0605,-0.0589,-0.0591,-0.0592,-0.0591,-0.0582,-0.0582,-0.0581,-0.0586,-0.0586,-0.0586,0,0,-0.0759,-0.0749,-0.0731,-0.0723,-0.0718,-0.0702,-0.0695,-0.0687,-0.0674,-0.0668,-0.0655,-0.0642,-0.0629,-0.0621,-0.0608,-0.0596,-0.0591,-0.0591,-0.0591,-0.0592,-0.0591,-0.0582,-0.0582,-0.0586,-0.0586,-0.0586,0,0,-0.0757,-0.0736,-0.0731,-0.0721,-0.0708,-0.069,-0.0685,-0.0678,-0.0666,-0.0665,-0.0651,-0.0646,-0.0634,-0.0624,-0.0628,-0.0607,-0.0604,-0.0603,-0.0614,-0.0614,-0.0614,-0.0617,-0.0619,0,0,0,0,0,-0.0743,-0.0739,-0.0734,-0.0731,-0.0707,-0.0692,-0.0689,-0.0677,-0.0676,-0.0672,-0.066,-0.0653,-0.0623,-0.0626,-0.0622,-0.0618,-0.0588,-0.0587,-0.0587,-0.0598,-0.0598,-0.0598,0,0,0,0,0,0,-0.0742,-0.0737,-0.0734,-0.0716,-0.0711,-0.0692,-0.0687,-0.0684,-0.0676,-0.0675,-0.0656,-0.0653,-0.0642,-0.0627,-0.0623,-0.062,-0.062,-0.0588,-0.0587,-0.0587,-0.0598,-0.0598,-0.0598,0,0,0,0,0,-0.074,-0.0737,-0.0702,-0.0716,-0.0711,-0.0695,-0.0687,-0.0684,-0.0678,-0.066,-0.0657,-0.067,-0.0642,-0.0639,-0.0625,-0.0622,-0.0623,-0.0621,-0.0587,-0.0587,-0.0587,-0.0598,0,0,0,0,0,0,-0.0739,-0.0734,-0.0701,-0.0699,-0.0717,-0.0695,-0.0692,-0.0685,-0.0663,-0.066,-0.0673,-0.0673,-0.0643,-0.064,-0.0637,-0.0624,-0.0625,-0.0623,-0.0623,-0.0587,-0.0587,-0.0587,0,0,0,0,0,0,-0.0735,-0.0732,-0.07,-0.0703,-0.0701,-0.0696,-0.0693,-0.068,-0.0663,-0.0678,-0.0676,-0.0673,-0.0647,-0.064,-0.0638,-0.0618,-0.0626,-0.0625,-0.0624,-0.0623,-0.0587,-0.0587,0,0,0,0,0,0,-0.0734,-0.0731,-0.0703,-0.0702,-0.07,-0.0678,-0.0684,-0.0661,-0.0666,-0.0679,-0.0666,-0.0666,-0.0647,-0.0645,-0.0639,-0.062,-0.0618,-0.0626,-0.0625,-0.0625,-0.0624,0,0,0,0,0,0,0,-0.0732,-0.0755,-0.0713,-0.0701,-0.07,-0.0682,-0.0681,-0.0681,-0.0666,-0.0666,-0.0666,-0.0666,-0.0633,-0.0632,-0.063,-0.0621,0,0,-0.0626,-0.0626,0,0,0,0,0,0,0,0,-0.0756,-0.0756,-0.0713,-0.0712,-0.0712,-0.0681,-0.0681,-0.0681,-0.0666,-0.0666,-0.0666,-0.0666,-0.0633,-0.0632,-0.0631,0,0,0,0,0,0,0,0,0,0,0,0,0,0,0,-0.0713,-0.0712,0,-0.0681,-0.0681,-0.0681,-0.0666,-0.0666,-0.0666,-0.0666,-0.0632,-0.0632,-0.0631,0,0,0,0,0,0,0,0,0,0,0,0,0,0,0,0,0,0,0,0,0,0,0,0,0,0,0,0,0,0,0,0,0,0,0,0,0,0,0,0,0,0,0,0,0,0,0,0,0,0,0,0,0,0,0,0,0,0,0,0,0,0,0,0,0,0,0,0,0]}],[{"header":{"parameterUnit":"kt","parameterCategory":2,"dx":1,"dy":1,"la1":30.253999710083008,"la2":30.299108505249023,"lo1":-89.0895004272461,"lo2":-89.04439544677734,"nx":28,"ny":28,"refTime":"2022-10-01T21:00:00:Z","depth":0,"parameterNumber":2,"parameterNumberName":"V-component_of_WINDS"},"data":[-4.954,-4.9548,-4.9616,-4.9656,-4.9724,-4.9762,-4.9797,-4.9849,-4.9907,-4.996,-5.0001,-5.0067,-5.0149,-5.0213,-5.0259,-5.0287,-5.0302,-5.0259,-5.0299,-5.0435,-5.0458,-5.048,-5.0484,-5.0261,-5.0261,-5.0148,-5.0147,-5.0146,-4.9643,-4.971,-4.975,-4.9835,-4.987,-4.9955,-5.0027,-5.005,-5.0081,-5.0151,-5.0195,-5.0244,-5.0291,-5.0388,-5.0443,-5.0447,-5.0488,-5.0458,-5.0458,-5.047,-5.0618,-5.0622,-5.0424,-5.0424,-5.0424,-5.0425,-5.0425,-5.0425,-4.9849,-4.985,-4.9941,-4.9985,-5.0045,-5.01,-5.0112,-5.0194,-5.0232,-5.0299,-5.0369,-5.0403,-5.0483,-5.0579,-5.0626,-5.0654,-5.0699,-5.0684,-5.0681,-5.0676,-5.0663,-5.0821,-5.0666,-5.0667,-5.0667,-5.0668,-5.0669,0,-5.002,-5.0077,-5.0118,-5.0181,-5.0216,-5.0269,-5.0329,-5.0338,-5.0475,-5.0499,-5.0541,-5.0575,-5.0641,-5.0685,-5.075,-5.0802,-5.0886,-5.0901,-5.0892,-5.0859,-5.0824,-5.0845,-5.1086,-5.0903,-5.0906,-5.0907,-5.0909,-5.0909,-5.0234,-5.0225,-5.035,-5.0371,-5.042,-5.0449,-5.048,-5.0602,-5.0628,-5.0717,-5.071,-5.0757,-5.08,-5.085,-5.094,-5.0988,-5.1029,-5.0953,-5.1036,-5.1008,-5.103,-5.1029,-5.103,-5.0934,-5.0931,-5.0928,-5.0926,0,-5.0348,-5.0456,-5.0464,-5.0587,-5.0618,-5.0602,-5.0707,-5.071,-5.0788,-5.0803,-5.0814,-5.0932,-5.0968,-5.1071,-5.113,-5.1183,-5.1159,-5.1197,-5.1135,-5.1148,-5.1091,-5.1096,-5.0887,-5.0867,-5.1099,-5.1096,-5.1095,0,-5.0572,-5.0555,-5.0718,-5.0716,-5.0702,-5.0825,-5.0807,-5.0871,-5.0942,-5.0955,-5.107,-5.1079,-5.1209,-5.1233,-5.131,-5.1308,-5.1318,-5.1358,-5.1379,-5.1348,-5.1343,-5.1361,-5.1371,-5.1423,-5.1424,-5.1425,-5.1426,0,-5.074,-5.0804,-5.0803,-5.0835,-5.0961,-5.0957,-5.1008,-5.1087,-5.1114,-5.1165,-5.1185,-5.1233,-5.126,-5.1296,-5.1394,-5.1447,-5.1394,-5.1486,-5.1434,-5.1432,-5.1415,-5.1414,-5.1207,-5.1427,-5.1427,-5.1427,-5.1428,0,-5.0936,-5.0989,-5.0968,-5.1078,-5.1089,-5.1086,-5.1146,-5.1167,-5.124,-5.129,-5.133,-5.1417,-5.1422,-5.1508,-5.1517,-5.1559,-5.1579,-5.1617,-5.1615,-5.1621,-5.1713,-5.1582,-5.1374,-5.1356,-5.1629,-5.163,-5.1632,0,-5.11,-5.1107,-5.1213,-5.1189,-5.1207,-5.1337,-5.1336,-5.1397,-5.1463,-5.1487,-5.1559,-5.1582,-5.1667,-5.1688,-5.168,-5.1753,-5.1699,-5.1763,-5.1793,-5.1793,-5.1772,-5.1582,-5.1525,-5.1409,-5.1655,-5.1652,-5.1651,0,-5.1239,-5.1393,-5.138,-5.1423,-5.1524,-5.1537,-5.1534,-5.1586,-5.1597,-5.165,-5.1651,-5.1685,-5.1752,-5.1783,-5.1857,-5.1843,-5.1739,-5.1914,-5.1918,-5.1881,-5.1673,-5.1621,-5.1601,-5.1792,-5.1789,-5.1787,-5.1669,0,-5.1516,-5.1531,-5.1503,-5.1587,-5.1613,-5.1602,-5.1713,-5.1727,-5.1799,-5.1867,-5.1868,-5.1939,-5.1986,-5.1989,-5.2055,-5.1988,-5.2015,-5.2083,-5.2172,-5.2045,-5.2009,-5.1994,-5.2218,-5.2222,-5.2224,-5.2226,0,0,-5.1645,-5.167,-5.1782,-5.1784,-5.1814,-5.1947,-5.1926,-5.1968,-5.205,-5.2067,-5.2118,-5.2174,-5.2227,-5.2216,-5.2185,-5.2202,-5.22,-5.2238,-5.2105,-5.209,-5.2078,-5.2037,-5.202,-5.2231,-5.2232,-5.2233,-5.2234,0,-5.1769,-5.1827,-5.1805,-5.1857,-5.1936,-5.201,-5.2005,-5.2104,-5.2147,-5.2147,-5.2252,-5.2265,-5.2301,-5.2347,-5.2375,-5.2244,-5.232,-5.2249,-5.2145,-5.2128,-5.211,-5.2095,-5.2051,-5.2033,-5.2241,-5.224,-5.224,0,-5.1927,-5.2003,-5.2004,-5.2076,-5.2128,-5.2139,-5.2263,-5.2267,-5.2277,-5.2415,-5.2412,-5.2465,-5.2532,-5.2505,-5.2496,-5.2542,-5.2424,-5.2478,-5.2464,-5.2464,-5.2453,-5.2432,-5.2412,-5.2663,-5.2664,-5.2665,0,0,-5.2018,-5.2033,-5.2149,-5.211,-5.2136,-5.2245,-5.226,-5.2332,-5.2393,-5.2415,-5.2484,-5.2537,-5.2562,-5.2574,-5.2601,-5.2555,-5.2578,-5.2526,-5.2506,-5.2489,-5.248,-5.2464,-5.2443,-5.2669,-5.2669,-5.2669,0,0,-5.2061,-5.2196,-5.2257,-5.2227,-5.2283,-5.2391,-5.2363,-5.244,-5.2475,-5.2488,-5.2605,-5.2624,-5.26,-5.2646,-5.2688,-5.2634,-5.272,-5.2712,-5.2604,-5.2581,-5.2561,-5.255,-5.2818,0,0,0,0,0,-5.2243,-5.218,-5.2235,-5.2246,-5.2334,-5.2362,-5.2374,-5.2471,-5.2533,-5.2508,-5.2579,-5.2659,-5.2694,-5.2734,-5.2741,-5.2692,-5.2721,-5.2712,-5.2703,-5.2555,-5.2529,-5.2507,0,0,0,0,0,0,-5.2249,-5.2262,-5.2237,-5.2341,-5.2362,-5.2365,-5.249,-5.2515,-5.2538,-5.2554,-5.2643,-5.2662,-5.2743,-5.2736,-5.2742,-5.2693,-5.2817,-5.2717,-5.2709,-5.2702,-5.2546,-5.2525,-5.2507,0,0,0,0,0,-5.2253,-5.2264,-5.238,-5.2343,-5.2361,-5.2477,-5.2493,-5.2515,-5.2534,-5.2641,-5.2662,-5.2606,-5.2739,-5.275,-5.274,-5.2689,-5.2814,-5.2816,-5.2712,-5.2706,-5.2701,-5.2536,0,0,0,0,0,0,-5.2257,-5.2284,-5.2385,-5.2395,-5.2374,-5.2478,-5.2498,-5.2514,-5.2622,-5.2642,-5.2609,-5.262,-5.2735,-5.2745,-5.2752,-5.2682,-5.2812,-5.2813,-5.2814,-5.2707,-5.2703,-5.2698,0,0,0,0,0,0,-5.2278,-5.229,-5.239,-5.2424,-5.2438,-5.2479,-5.2497,-5.25,-5.2621,-5.2584,-5.2597,-5.2613,-5.2722,-5.274,-5.2747,-5.2748,-5.281,-5.2811,-5.2812,-5.2813,-5.2704,-5.27,0,0,0,0,0,0,-5.2285,-5.2295,-5.2422,-5.2432,-5.2445,-5.2554,-5.2484,-5.2567,-5.2654,-5.2577,-5.2664,-5.2669,-5.2715,-5.2724,-5.2742,-5.274,-5.2746,-5.281,-5.2811,-5.2812,-5.2812,0,0,0,0,0,0,0,-5.2291,-5.22,-5.2332,-5.244,-5.2451,-5.2478,-5.2481,-5.2483,-5.2655,-5.2659,-5.2663,-5.2667,-5.2801,-5.2803,-5.2804,-5.2734,0,0,-5.281,-5.281,0,0,0,0,0,0,0,0,-5.2198,-5.2199,-5.2332,-5.2334,-5.2336,-5.2479,-5.2481,-5.2483,-5.2655,-5.2659,-5.2662,-5.2665,-5.2801,-5.2803,-5.2804,0,0,0,0,0,0,0,0,0,0,0,0,0,0,0,-5.2333,-5.2334,0,-5.2479,-5.2481,-5.2482,-5.2656,-5.2659,-5.2661,-5.2664,-5.2802,-5.2803,-5.2804,0,0,0,0,0,0,0,0,0,0,0,0,0,0,0,0,0,0,0,0,0,0,0,0,0,0,0,0,0,0,0,0,0,0,0,0,0,0,0,0,0,0,0,0,0,0,0,0,0,0,0,0,0,0,0,0,0,0,0,0,0,0,0,0,0,0,0,0,0]}]]]